QPF
0.02 0.03 0.03 0.05 0.08 0.10 0.12 0.17 0.17 0.14 0.13 0.12 0.09 0.07 0.06 0.06 0.07 0.08 0.11 0.13 0.11 0.10 0.09 0.08 0.08 0.07 0.05 0.04 0.04 0.04 0.03 0.02 0.01 0.01 0.01 0.01 0.01 0.01 0.00 0.00 0.00 0.00 0.00
0.03 0.04 0.04 0.05 0.07 0.08 0.12 0.14 0.16 0.16 0.11 0.08 0.07 0.05 0.04 0.05 0.05 0.06 0.08 0.11 0.13 0.14 0.12 0.09 0.08 0.07 0.07 0.05 0.05 0.05 0.04 0.03 0.02 0.02 0.02 0.01 0.01 0.01 0.01 0.00 0.00 0.00 0.01
0.04 0.07 0.07 0.07 0.08 0.07 0.11 0.11 0.14 0.17 0.14 0.10 0.07 0.06 0.06 0.05 0.05 0.06 0.06 0.08 0.10 0.13 0.15 0.13 0.10 0.08 0.07 0.06 0.05 0.05 0.04 0.03 0.03 0.02 0.03 0.02 0.01 0.01 0.01 0.00 0.00 0.01 0.01
0.07 0.09 0.10 0.09 0.10 0.09 0.09 0.10 0.11 0.14 0.14 0.11 0.08 0.06 0.06 0.05 0.05 0.04 0.04 0.06 0.08 0.10 0.13 0.15 0.13 0.10 0.08 0.06 0.06 0.05 0.05 0.04 0.03 0.02 0.02 0.02 0.02 0.02 0.01 0.00 0.00 0.00 0.00
0.07 0.08 0.11 0.11 0.11 0.11 0.09 0.09 0.10 0.12 0.12 0.11 0.09 0.07 0.07 0.06 0.04 0.04 0.04 0.05 0.06 0.08 0.10 0.12 0.15 0.13 0.09 0.07 0.07 0.07 0.07 0.06 0.05 0.04 0.03 0.03 0.03 0.03 0.02 0.01 0.01 0.00 0.00
0.07 0.08 0.10 0.12 0.12 0.12 0.10 0.08 0.09 0.09 0.10 0.09 0.09 0.07 0.07 0.06 0.05 0.05 0.04 0.04 0.04 0.04 0.06 0.07 0.10 0.12 0.11 0.09 0.08 0.07 0.08 0.07 0.06 0.06 0.05 0.04 0.04 0.03 0.03 0.03 0.02 0.01 0.00
0.09 0.10 0.10 0.11 0.11 0.12 0.10 0.07 0.06 0.08 0.08 0.08 0.08 0.08 0.07 0.05 0.04 0.05 0.05 0.04 0.03 0.04 0.05 0.07 0.09 0.10 0.11 0.11 0.10 0.09 0.08 0.07 0.07 0.06 0.06 0.05 0.04 0.03 0.03 0.03 0.03 0.02 0.01
0.07 0.09 0.09 0.10 0.09 0.09 0.10 0.10 0.09 0.08 0.09 0.09 0.10 0.11 0.10 0.09 0.07 0.04 0.04 0.04 0.03 0.03 0.04 0.05 0.07 0.08 0.09 0.10 0.11 0.11 0.09 0.08 0.07 0.06 0.06 0.06 0.05 0.05 0.05 0.06 0.06 0.05 0.04
0.06 0.06 0.07 0.07 0.07 0.09 0.11 0.12 0.11 0.09 0.09 0.08 0.08 0.08 0.08 0.09 0.11 0.09 0.05 0.04 0.03 0.02 0.02 0.03 0.05 0.06 0.08 0.09 0.10 0.11 0.10 0.09 0.08 0.06 0.06 0.07 0.06 0.05 0.05 0.06 0.07 0.09 0.08
0.05 0.05 0.05 0.05 0.06 0.07 0.08 0.08 0.08 0.09 0.09 0.07 0.07 0.06 0.06 0.08 0.10 0.10 0.08 0.06 0.04 0.02 0.02 0.02 0.02 0.03 0.05 0.08 0.10 0.10 0.09 0.09 0.07 0.06 0.05 0.05 0.05 0.06 0.07 0.07 0.08 0.10 0.11
0.04 0.05 0.05 0.06 0.06 0.05 0.05 0.06 0.08 0.09 0.08 0.07 0.06 0.05 0.04 0.04 0.06 0.07 0.07 0.05 0.04 0.04 0.03 0.03 0.03 0.03 0.03 0.06 0.08 0.09 0.08 0.09 0.09 0.08 0.06 0.05 0.05 0.05 0.06 0.07 0.08 0.10 0.11
0.04 0.04 0.04 0.06 0.06 0.05 0.06 0.06 0.07 0.08 0.08 0.07 0.06 0.05 0.03 0.02 0.02 0.03 0.04 0.04 0.03 0.03 0.03 0.03 0.04 0.03 0.03 0.04 0.06 0.09 0.08 0.08 0.09 0.10 0.11 0.10 0.09 0.09 0.08 0.08 0.09 0.10 0.11
0.05 0.05 0.03 0.03 0.04 0.05 0.05 0.06 0.07 0.07 0.06 0.06 0.06 0.04 0.03 0.02 0.01 0.01 0.02 0.02 0.03 0.03 0.03 0.04 0.04 0.05 0.05 0.05 0.06 0.08 0.09 0.09 0.08 0.09 0.11 0.11 0.11 0.11 0.11 0.11 0.12 0.12 0.12
0.03 0.04 0.04 0.02 0.03 0.04 0.04 0.04 0.04 0.05 0.06 0.05 0.05 0.04 0.03 0.02 0.01 0.01 0.01 0.01 0.02 0.02 0.03 0.03 0.04 0.04 0.05 0.06 0.07 0.08 0.09 0.09 0.09 0.09 0.09 0.10 0.11 0.10 0.10 0.10 0.11 0.11 0.12
0.03 0.04 0.04 0.02 0.02 0.03 0.03 0.03 0.03 0.03 0.03 0.03 0.03 0.03 0.03 0.03 0.02 0.01 0.01 0.02 0.03 0.03 0.03 0.04 0.04 0.04 0.03 0.04 0.05 0.06 0.07 0.08 0.09 0.09 0.09 0.09 0.10 0.10 0.10 0.10 0.10 0.11 0.12
0.02 0.02 0.02 0.02 0.02 0.02 0.03 0.03 0.03 0.03 0.03 0.02 0.01 0.01 0.01 0.01 0.02 0.03 0.03 0.03 0.04 0.06 0.06 0.06 0.06 0.04 0.03 0.04 0.06 0.06 0.05 0.07 0.09 0.09 0.09 0.09 0.09 0.10 0.10 0.10 0.11 0.11 0.12
0.01 0.01 0.01 0.01 0.01 0.01 0.02 0.02 0.02 0.03 0.03 0.02 0.02 0.02 0.02 0.02 0.03 0.04 0.03 0.03 0.03 0.06 0.07 0.07 0.08 0.07 0.06 0.06 0.06 0.07 0.07 0.07 0.08 0.09 0.09 0.09 0.08 0.08 0.08 0.09 0.10 0.10 0.10
0.00 0.00 0.00 0.01 0.01 0.01 0.01 0.02 0.02 0.02 0.02 0.02 0.02 0.02 0.01 0.02 0.03 0.03 0.03 0.03 0.04 0.06 0.09 0.08 0.07 0.07 0.07 0.07 0.05 0.06 0.06 0.07 0.07 0.07 0.07 0.07 0.08 0.08 0.08 0.09 0.10 0.10 0.10
0.00 0.00 0.00 0.00 0.00 0.00 0.01 0.02 0.02 0.01 0.01 0.01 0.02 0.02 0.02 0.03 0.04 0.03 0.02 0.02 0.03 0.05 0.07 0.07 0.06 0.05 0.06 0.06 0.05 0.04 0.05 0.06 0.07 0.07 0.07 0.07 0.07 0.08 0.10 0.10 0.10 0.10 0.10
0.00 0.00 0.00 0.00 0.00 0.00 0.00 0.01 0.01 0.02 0.02 0.02 0.03 0.02 0.03 0.04 0.05 0.04 0.04 0.02 0.02 0.03 0.04 0.05 0.05 0.04 0.03 0.03 0.03 0.03 0.03 0.03 0.04 0.05 0.07 0.08 0.07 0.07 0.08 0.09 0.10 0.11 0.10
0.00 0.00 0.00 0.00 0.00 0.00 0.00 0.00 0.00 0.01 0.02 0.03 0.03 0.03 0.03 0.04 0.04 0.04 0.04 0.03 0.02 0.03 0.04 0.04 0.05 0.04 0.04 0.04 0.03 0.03 0.03 0.03 0.03 0.04 0.05 0.06 0.08 0.08 0.08 0.09 0.09 0.09 0.09
0.00 0.00 0.00 0.00 0.00 0.00 0.00 0.00 0.00 0.00 0.01 0.01 0.02 0.03 0.02 0.02 0.03 0.03 0.03 0.03 0.03 0.03 0.04 0.05 0.05 0.05 0.05 0.05 0.05 0.05 0.04 0.04 0.03 0.03 0.03 0.04 0.06 0.08 0.09 0.10 0.11 0.11 0.12
0.00 0.00 0.00 0.00 0.00 0.00 0.00 0.00 0.00 0.00 0.00 0.00 0.02 0.02 0.01 0.01 0.02 0.02 0.03 0.03 0.04 0.03 0.04 0.05 0.05 0.06 0.07 0.07 0.07 0.06 0.05 0.05 0.04 0.04 0.04 0.05 0.06 0.07 0.09 0.10 0.12 0.11 0.11
0.00 0.00 0.00 0.00 0.00 0.00 0.00 0.00 0.00 0.00 0.00 0.01 0.02 0.03 0.02 0.02 0.02 0.02 0.02 0.02 0.03 0.03 0.03 0.04 0.05 0.05 0.06 0.06 0.06 0.06 0.05 0.05 0.05 0.04 0.05 0.05 0.06 0.06 0.07 0.09 0.11 0.11 0.10
0.00 0.00 0.00 0.00 0.00 0.00 0.00 0.00 0.00 0.01 0.00 0.01 0.01 0.02 0.02 0.02 0.01 0.02 0.02 0.01 0.02 0.03 0.03 0.02 0.03 0.03 0.04 0.04 0.05 0.04 0.05 0.05 0.05 0.05 0.05 0.05 0.05 0.05 0.06 0.07 0.09 0.11 0.12
0.00 0.00 0.00 0.00 0.00 0.01 0.01 0.01 0.00 0.01 0.00 0.00 0.01 0.01 0.02 0.02 0.01 0.01 0.01 0.01 0.01 0.01 0.02 0.03 0.02 0.02 0.02 0.03 0.03 0.03 0.05 0.05 0.05 0.05 0.05 0.05 0.05 0.05 0.05 0.06 0.07 0.09 0.10
MSLP
1017.36 1016.91 1016.42 1015.91 1015.39 1014.90 1014.45 1014.05 1013.72 1013.45 1013.25 1013.09 1012.97 1012.88 1012.81 1012.75 1012.69 1012.64 1012.59 1012.55 1012.53 1012.52 1012.54 1012.62 1012.75 1012.96 1013.24 1013.60 1014.03 1014.49 1014.97 1015.42 1015.81 1016.12 1016.34 1016.48 1016.56 1016.59 1016.63 1016.68 1016.79 1016.94 1017.15
1017.80 1017.43 1016.99 1016.52 1016.03 1015.56 1015.11 1014.71 1014.36 1014.06 1013.81 1013.60 1013.41 1013.24 1013.08 1012.93 1012.78 1012.65 1012.53 1012.42 1012.34 1012.28 1012.26 1012.28 1012.35 1012.50 1012.73 1013.02 1013.39 1013.81 1014.26 1014.69 1015.09 1015.42 1015.68 1015.86 1015.97 1016.05 1016.11 1016.18 1016.29 1016.45 1016.66
1018.12 1017.85 1017.50 1017.09 1016.65 1016.21 1015.79 1015.40 1015.06 1014.75 1014.47 1014.21 1013.96 1013.71 1013.47 1013.22 1012.98 1012.76 1012.56 1012.38 1012.23 1012.11 1012.02 1011.98 1011.99 1012.06 1012.20 1012.42 1012.70 1013.05 1013.44 1013.84 1014.22 1014.57 1014.86 1015.09 1015.27 1015.40 1015.52 1015.64 1015.79 1015.97 1016.19
1018.29 1018.13 1017.88 1017.56 1017.19 1016.80 1016.42 1016.06 1015.73 1015.42 1015.13 1014.84 1014.55 1014.24 1013.92 1013.60 1013.27 1012.97 1012.68 1012.42 1012.20 1012.01 1011.86 1011.74 1011.68 1011.66 1011.70 1011.81 1011.99 1012.24 1012.55 1012.89 1013.24 1013.58 1013.90 1014.19 1014.43 1014.65 1014.85 1015.05 1015.25 1015.48 1015.73
1018.33 1018.29 1018.15 1017.91 1017.61 1017.27 1016.93 1016.60 1016.29 1015.99 1015.70 1015.40 1015.09 1014.74 1014.38 1013.99 1013.60 1013.22 1012.87 1012.54 1012.25 1012.00 1011.77 1011.58 1011.43 1011.31 1011.24 1011.23 1011.29 1011.42 1011.61 1011.87 1012.17 1012.49 1012.83 1013.16 1013.47 1013.78 1014.07 1014.37 1014.66 1014.96 1015.27
1018.30 1018.37 1018.32 1018.16 1017.91 1017.62 1017.30 1016.99 1016.69 1016.41 1016.12 1015.83 1015.50 1015.15 1014.76 1014.34 1013.92 1013.49 1013.09 1012.71 1012.36 1012.04 1011.75 1011.49 1011.24 1011.02 1010.84 1010.70 1010.62 1010.61 1010.68 1010.82 1011.04 1011.32 1011.65 1012.01 1012.38 1012.77 1013.17 1013.56 1013.96 1014.35 1014.74
1018.25 1018.41 1018.43 1018.32 1018.11 1017.84 1017.53 1017.22 1016.93 1016.64 1016.36 1016.06 1015.75 1015.40 1015.02 1014.60 1014.16 1013.72 1013.29 1012.88 1012.49 1012.13 1011.78 1011.44 1011.11 1010.79 1010.49 1010.22 1010.00 1009.84 1009.77 1009.79 1009.90 1010.10 1010.39 1010.75 1011.17 1011.62 1012.11 1012.61 1013.11 1013.61 1014.09
1018.24 1018.46 1018.52 1018.44 1018.24 1017.97 1017.65 1017.32 1017.00 1016.70 1016.41 1016.12 1015.82 1015.49 1015.12 1014.72 1014.30 1013.87 1013.44 1013.01 1012.60 1012.20 1011.81 1011.41 1011.01 1010.60 1010.19 1009.80 1009.44 1009.13 1008.91 1008.79 1008.78 1008.89 1009.10 1009.43 1009.85 1010.34 1010.89 1011.48 1012.08 1012.69 1013.29
1018.27 1018.52 1018.60 1018.53 1018.33 1018.03 1017.68 1017.31 1016.96 1016.62 1016.32 1016.02 1015.73 1015.42 1015.09 1014.72 1014.33 1013.92 1013.50 1013.08 1012.66 1012.24 1011.81 1011.37 1010.90 1010.42 1009.91 1009.41 1008.93 1008.49 1008.13 1007.86 1007.72 1007.71 1007.83 1008.09 1008.47 1008.97 1009.55 1010.20 1010.89 1011.61 1012.32
1018.33 1018.59 1018.68 1018.60 1018.38 1018.05 1017.66 1017.25 1016.85 1016.48 1016.14 1015.84 1015.55 1015.25 1014.94 1014.61 1014.25 1013.87 1013.47 1013.06 1012.64 1012.20 1011.75 1011.27 1010.75 1010.21 1009.64 1009.05 1008.47 1007.92 1007.43 1007.04 1006.76 1006.62 1006.63 1006.79 1007.10 1007.56 1008.14 1008.82 1009.57 1010.37 1011.19
1018.37 1018.63 1018.72 1018.64 1018.41 1018.06 1017.63 1017.18 1016.73 1016.33 1015.96 1015.63 1015.33 1015.05 1014.76 1014.45 1014.11 1013.75 1013.37 1012.96 1012.53 1012.07 1011.60 1011.08 1010.53 1009.95 1009.33 1008.69 1008.04 1007.41 1006.82 1006.32 1005.92 1005.65 1005.54 1005.59 1005.81 1006.19 1006.73 1007.39 1008.17 1009.03 1009.93
1018.33 1018.60 1018.69 1018.62 1018.39 1018.04 1017.60 1017.13 1016.66 1016.21 1015.82 1015.47 1015.16 1014.86 1014.57 1014.27 1013.94 1013.59 1013.20 1012.78 1012.33 1011.85 1011.35 1010.81 1010.23 1009.62 1008.97 1008.30 1007.61 1006.93 1006.28 1005.69 1005.20 1004.82 1004.59 1004.52 1004.62 1004.90 1005.37 1005.99 1006.75 1007.63 1008.58
1018.18 1018.45 1018.57 1018.53 1018.33 1018.00 1017.57 1017.11 1016.63 1016.17 1015.76 1015.39 1015.05 1014.75 1014.44 1014.12 1013.78 1013.40 1012.99 1012.54 1012.06 1011.54 1011.00 1010.43 1009.83 1009.20 1008.54 1007.86 1007.16 1006.46 1005.78 1005.14 1004.57 1004.10 1003.76 1003.57 1003.55 1003.72 1004.08 1004.62 1005.34 1006.20 1007.18
1017.89 1018.18 1018.33 1018.34 1018.19 1017.91 1017.54 1017.10 1016.65 1016.20 1015.78 1015.40 1015.04 1014.70 1014.36 1014.01 1013.63 1013.21 1012.75 1012.25 1011.72 1011.16 1010.57 1009.97 1009.34 1008.70 1008.03 1007.35 1006.65 1005.95 1005.25 1004.58 1003.97 1003.42 1002.99 1002.69 1002.55 1002.60 1002.84 1003.29 1003.93 1004.75 1005.71
1017.48 1017.79 1017.99 1018.05 1017.98 1017.78 1017.48 1017.10 1016.69 1016.27 1015.86 1015.47 1015.09 1014.71 1014.33 1013.93 1013.49 1013.01 1012.49 1011.93 1011.33 1010.72 1010.08 1009.43 1008.77 1008.10 1007.43 1006.75 1006.06 1005.36 1004.66 1003.97 1003.31 1002.71 1002.19 1001.80 1001.55 1001.48 1001.61 1001.95 1002.51 1003.26 1004.19
1016.98 1017.32 1017.57 1017.69 1017.70 1017.58 1017.37 1017.07 1016.72 1016.34 1015.95 1015.55 1015.15 1014.74 1014.30 1013.84 1013.34 1012.79 1012.20 1011.57 1010.91 1010.22 1009.53 1008.83 1008.13 1007.43 1006.74 1006.05 1005.35 1004.65 1003.93 1003.22 1002.53 1001.88 1001.29 1000.81 1000.46 1000.28 1000.31 1000.55 1001.02 1001.70 1002.58
1016.45 1016.81 1017.09 1017.27 1017.35 1017.33 1017.20 1016.98 1016.70 1016.37 1016.00 1015.60 1015.18 1014.73 1014.24 1013.72 1013.15 1012.54 1011.88 1011.18 1010.45 1009.70 1008.94 1008.19 1007.44 1006.71 1005.98 1005.25 1004.53 1003.80 1003.06 1002.31 1001.58 1000.87 1000.22 999.65 999.22 998.95 998.88 999.04 999.43 1000.05 1000.89
1015.94 1016.29 1016.59 1016.81 1016.96 1017.00 1016.95 1016.82 1016.60 1016.32 1015.97 1015.57 1015.13 1014.64 1014.11 1013.53 1012.90 1012.23 1011.51 1010.75 1009.97 1009.17 1008.35 1007.54 1006.74 1005.95 1005.17 1004.39 1003.61 1002.83 1002.04 1001.24 1000.45 999.68 998.96 998.32 997.81 997.47 997.33 997.42 997.75 998.34 999.15
1015.47 1015.80 1016.10 1016.34 1016.53 1016.63 1016.65 1016.57 1016.41 1016.16 1015.84 1015.44 1014.98 1014.46 1013.89 1013.26 1012.59 1011.87 1011.11 1010.31 1009.48 1008.64 1007.78 1006.92 1006.06 1005.21 1004.36 1003.51 1002.66 1001.80 1000.94 1000.07 999.20 998.36 997.57 996.87 996.30 995.90 995.70 995.75 996.05 996.61 997.42
1015.05 1015.35 1015.63 1015.88 1016.08 1016.22 1016.28 1016.26 1016.13 1015.92 1015.61 1015.21 1014.74 1014.19 1013.59 1012.93 1012.22 1011.47 1010.69 1009.87 1009.02 1008.15 1007.26 1006.36 1005.45 1004.53 1003.60 1002.67 1001.74 1000.79 999.84 998.89 997.95 997.04 996.19 995.43 994.81 994.36 994.13 994.15 994.43 994.98 995.80
1014.69 1014.93 1015.19 1015.43 1015.64 1015.80 1015.89 1015.90 1015.80 1015.61 1015.31 1014.91 1014.42 1013.87 1013.24 1012.56 1011.84 1011.08 1010.29 1009.46 1008.61 1007.73 1006.82 1005.88 1004.92 1003.94 1002.95 1001.94 1000.92 999.89 998.85 997.82 996.81 995.85 994.94 994.14 993.49 993.01 992.76 992.76 993.03 993.59 994.41
1014.33 1014.54 1014.77 1015.00 1015.22 1015.39 1015.50 1015.53 1015.45 1015.27 1014.98 1014.58 1014.09 1013.52 1012.89 1012.21 1011.48 1010.73 1009.94 1009.12 1008.27 1007.39 1006.46 1005.50 1004.51 1003.48 1002.42 1001.35 1000.26 999.16 998.06 996.98 995.92 994.92 993.99 993.17 992.49 992.00 991.74 991.73 991.99 992.54 993.36
1013.97 1014.15 1014.37 1014.60 1014.82 1015.01 1015.13 1015.18 1015.12 1014.94 1014.65 1014.26 1013.77 1013.20 1012.57 1011.89 1011.18 1010.44 1009.67 1008.87 1008.03 1007.15 1006.22 1005.24 1004.21 1003.15 1002.05 1000.92 999.79 998.65 997.52 996.41 995.35 994.34 993.42 992.61 991.94 991.45 991.18 991.16 991.41 991.92 992.71
1013.56 1013.75 1013.98 1014.22 1014.46 1014.66 1014.81 1014.86 1014.81 1014.64 1014.36 1013.97 1013.49 1012.93 1012.31 1011.66 1010.97 1010.25 1009.50 1008.71 1007.89 1007.01 1006.07 1005.08 1004.03 1002.93 1001.80 1000.65 999.49 998.35 997.22 996.13 995.10 994.13 993.25 992.48 991.85 991.39 991.13 991.09 991.31 991.78 992.52
1013.10 1013.33 1013.58 1013.86 1014.12 1014.35 1014.51 1014.58 1014.54 1014.38 1014.10 1013.72 1013.25 1012.71 1012.12 1011.49 1010.83 1010.14 1009.41 1008.64 1007.82 1006.95 1006.00 1004.99 1003.92 1002.80 1001.65 1000.49 999.34 998.21 997.13 996.10 995.13 994.25 993.45 992.76 992.19 991.77 991.53 991.48 991.66 992.08 992.73
1012.59 1012.87 1013.18 1013.50 1013.81 1014.06 1014.24 1014.32 1014.29 1014.13 1013.87 1013.50 1013.05 1012.54 1011.98 1011.38 1010.75 1010.09 1009.39 1008.64 1007.83 1006.94 1005.98 1004.94 1003.85 1002.71 1001.55 1000.39 999.26 998.18 997.16 996.21 995.35 994.57 993.89 993.30 992.83 992.48 992.27 992.23 992.38 992.73 993.29
Thickness
5582 5585 5589 5593 5597 5602 5607 5612 5616 5621 5626 5628 5631 5633 5635 5637 5639 5642 5645 5646 5648 5650 5651 5651 5651 5651 5651 5650 5650 5649 5646 5645 5644 5642 5642 5645 5646 5647 5646 5645 5643 5641 5638
5574 5577 5581 5585 5588 5592 5597 5602 5607 5612 5616 5619 5621 5624 5625 5627 5630 5633 5635 5637 5639 5641 5643 5644 5644 5644 5644 5643 5643 5642 5640 5638 5636 5635 5634 5636 5639 5640 5639 5637 5635 5634 5631
5566 5570 5574 5577 5580 5584 5588 5593 5598 5602 5606 5609 5611 5614 5615 5618 5620 5623 5625 5627 5630 5632 5633 5635 5636 5637 5637 5637 5637 5636 5634 5632 5630 5629 5628 5627 5631 5632 5634 5631 5628 5626 5623
5561 5563 5566 5569 5572 5576 5580 5585 5590 5593 5596 5599 5603 5606 5608 5611 5612 5614 5616 5619 5621 5623 5624 5626 5628 5629 5631 5631 5630 5629 5627 5625 5623 5622 5622 5622 5623 5619 5623 5623 5621 5617 5615
5555 5556 5558 5561 5564 5568 5573 5577 5581 5585 5588 5591 5594 5597 5600 5602 5603 5605 5608 5610 5612 5614 5615 5617 5619 5621 5622 5622 5622 5621 5620 5619 5617 5615 5614 5612 5611 5611 5610 5613 5613 5609 5607
5549 5550 5552 5554 5557 5561 5565 5569 5574 5577 5580 5583 5585 5588 5591 5592 5594 5596 5598 5600 5602 5604 5605 5607 5609 5611 5612 5613 5613 5613 5612 5611 5610 5608 5607 5605 5603 5603 5601 5601 5601 5602 5601
5544 5545 5547 5549 5552 5555 5558 5562 5566 5569 5572 5575 5577 5579 5582 5583 5586 5587 5589 5591 5593 5595 5597 5598 5600 5602 5603 5603 5603 5603 5604 5603 5602 5601 5599 5598 5596 5595 5592 5589 5589 5589 5591
5539 5540 5541 5544 5547 5549 5552 5555 5559 5561 5564 5566 5568 5571 5573 5575 5577 5579 5581 5583 5585 5586 5587 5588 5589 5592 5593 5594 5594 5595 5594 5594 5593 5593 5591 5589 5587 5585 5583 5580 5577 5577 5579
5535 5536 5537 5539 5541 5544 5546 5548 5551 5553 5555 5557 5560 5563 5566 5568 5570 5571 5572 5574 5576 5577 5577 5578 5580 5581 5583 5584 5585 5586 5586 5585 5585 5584 5582 5580 5579 5576 5574 5570 5567 5564 5566
5533 5533 5534 5535 5537 5539 5540 5542 5544 5546 5549 5551 5554 5557 5560 5561 5563 5564 5565 5566 5567 5567 5568 5569 5571 5573 5574 5576 5576 5577 5577 5575 5575 5574 5573 5571 5569 5567 5564 5561 5558 5556 5553
5531 5531 5531 5532 5533 5535 5537 5537 5539 5541 5543 5546 5549 5552 5554 5555 5556 5557 5558 5559 5559 5560 5562 5563 5563 5564 5566 5567 5568 5569 5567 5565 5565 5564 5564 5563 5561 5558 5556 5553 5550 5547 5544
5530 5529 5529 5529 5531 5532 5533 5534 5535 5537 5538 5541 5543 5546 5548 5549 5551 5551 5551 5551 5553 5554 5555 5555 5556 5557 5558 5559 5559 5559 5558 5556 5556 5555 5554 5553 5551 5549 5546 5543 5541 5538 5535
5529 5529 5528 5528 5528 5529 5529 5530 5531 5532 5534 5536 5538 5540 5542 5543 5544 5544 5544 5545 5546 5546 5547 5548 5548 5549 5549 5549 5549 5549 5549 5548 5547 5546 5544 5544 5541 5539 5537 5533 5531 5528 5525
5529 5528 5527 5526 5525 5525 5526 5527 5528 5528 5529 5531 5532 5534 5535 5536 5537 5537 5537 5538 5538 5539 5540 5540 5541 5540 5540 5540 5539 5539 5539 5539 5538 5537 5535 5533 5531 5530 5527 5524 5522 5519 5516
5529 5527 5526 5526 5524 5524 5524 5524 5525 5525 5525 5526 5527 5528 5529 5530 5530 5530 5531 5531 5531 5532 5533 5534 5534 5533 5532 5531 5531 5531 5530 5530 5529 5528 5526 5524 5521 5519 5517 5515 5513 5510 5507
5529 5527 5525 5524 5523 5523 5522 5522 5522 5521 5521 5522 5523 5523 5523 5524 5525 5525 5524 5525 5525 5526 5527 5528 5527 5525 5523 5521 5520 5519 5520 5519 5519 5519 5518 5515 5513 5510 5508 5505 5502 5500 5498
5531 5528 5526 5524 5523 5521 5520 5519 5519 5518 5519 5519 5519 5518 5518 5519 5519 5519 5519 5520 5520 5520 5520 5520 5518 5516 5514 5511 5509 5508 5508 5509 5509 5508 5507 5506 5503 5501 5499 5496 5493 5491 5489
5530 5527 5525 5523 5521 5519 5518 5517 5516 5516 5516 5516 5515 5514 5514 5515 5514 5514 5514 5513 5513 5512 5512 5511 5509 5507 5504 5502 5501 5500 5499 5498 5498 5498 5497 5495 5493 5491 5488 5487 5485 5483 5480
5531 5528 5524 5521 5519 5517 5516 5515 5514 5514 5513 5512 5511 5511 5510 5510 5510 5509 5508 5507 5506 5505 5504 5503 5501 5499 5497 5495 5494 5492 5491 5490 5489 5488 5487 5485 5483 5481 5478 5477 5475 5474 5472
5528 5525 5522 5519 5517 5515 5513 5512 5512 5511 5510 5509 5507 5506 5506 5505 5505 5504 5502 5501 5500 5498 5497 5495 5493 5491 5489 5488 5486 5484 5483 5482 5480 5479 5478 5475 5473 5471 5468 5467 5467 5465 5463
5525 5522 5519 5517 5515 5512 5510 5509 5508 5507 5505 5503 5502 5502 5501 5501 5500 5499 5497 5495 5493 5492 5490 5488 5486 5484 5482 5481 5478 5476 5474 5472 5470 5469 5468 5466 5463 5460 5459 5458 5458 5457 5455
5521 5518 5516 5514 5511 5508 5506 5506 5505 5503 5501 5499 5498 5497 5497 5495 5494 5492 5490 5488 5486 5485 5483 5481 5479 5477 5474 5472 5470 5467 5464 5462 5461 5460 5458 5455 5452 5450 5448 5447 5448 5446 5444
5518 5515 5513 5510 5507 5505 5503 5503 5501 5498 5496 5495 5494 5493 5491 5489 5487 5485 5483 5481 5479 5477 5475 5473 5471 5469 5466 5463 5461 5458 5456 5453 5452 5450 5447 5444 5441 5439 5438 5437 5437 5436 5435
5514 5510 5507 5506 5504 5502 5499 5498 5495 5492 5491 5491 5489 5487 5485 5483 5480 5478 5475 5473 5471 5469 5466 5464 5461 5459 5457 5455 5452 5450 5447 5445 5443 5440 5437 5434 5431 5429 5427 5426 5426 5425 5423
5509 5506 5504 5502 5500 5497 5494 5492 5489 5488 5487 5485 5483 5481 5478 5476 5474 5471 5468 5465 5463 5459 5456 5454 5451 5449 5448 5444 5441 5439 5438 5436 5433 5431 5428 5425 5421 5419 5418 5416 5415 5414 5412
5504 5501 5499 5497 5495 5492 5490 5486 5484 5482 5481 5479 5477 5474 5471 5468 5466 5464 5460 5456 5453 5449 5446 5443 5440 5439 5436 5434 5432 5430 5428 5426 5423 5421 5419 5415 5412 5409 5408 5406 5405 5403 5401